Location: Juzet
(42.9779°N, 0.7597°E)
Time: 18:03:32
(UTC+00:00)

Cosmos 1437 Rocket - Pass Details

Date: 14 July 2020
Orbit: 506 x 562 km, 81.2° (Epoch: 13 August)

Event Time Altitude Azimuth Distance (km) Brightness Sun altitude
Rises 02:07:02 0° 343° (NNW) 2,732 7.0 -19.4°
Reaches altitude 10° 02:09:17 10° 338° (NNW) 1,824 5.9 -19.2°
Maximum altitude 02:13:07 45° 265° (W) 745 3.2 -18.8°
Enters shadow 02:13:31 43° 246° (WSW) 763 3.1 -18.7°
